TimeCDT,TemperatureF,Dew PointF,Humidity,Sea Level PressureIn,VisibilityMPH,Wind Direction,Wind SpeedMPH,Gust SpeedMPH,PrecipitationIn,Events,Conditions,WindDirDegrees,DateUTC
12:54 AM,41.0,30.0,65,30.02,10.0,North,6.9,-,N/A,,Scattered Clouds,350,2013-10-21 05:54:00
1:54 AM,36.0,28.9,76,30.04,10.0,West,5.8,-,N/A,,Clear,280,2013-10-21 06:54:00
2:54 AM,34.0,28.9,82,30.06,10.0,West,6.9,-,N/A,,Clear,270,2013-10-21 07:54:00
3:54 AM,32.0,28.0,85,30.07,10.0,West,5.8,-,N/A,,Clear,270,2013-10-21 08:54:00
4:54 AM,32.0,28.0,85,30.07,10.0,West,4.6,-,N/A,,Clear,260,2013-10-21 09:54:00
5:54 AM,32.0,28.0,85,30.09,10.0,West,6.9,-,N/A,,Clear,280,2013-10-21 10:54:00
6:54 AM,30.9,28.0,89,30.09,10.0,West,5.8,-,N/A,,Clear,270,2013-10-21 11:54:00
7:54 AM,30.9,27.0,85,30.09,10.0,West,3.5,-,N/A,,Clear,280,2013-10-21 12:54:00
8:54 AM,35.1,30.0,82,30.10,10.0,WNW,3.5,-,N/A,,Partly Cloudy,290,2013-10-21 13:54:00
9:54 AM,41.0,33.1,73,30.10,10.0,WNW,4.6,-,N/A,,Overcast,290,2013-10-21 14:54:00
10:54 AM,44.1,32.0,63,30.10,10.0,West,5.8,-,N/A,,Overcast,270,2013-10-21 15:54:00
11:54 AM,45.0,32.0,60,30.09,10.0,WNW,6.9,-,N/A,,Overcast,300,2013-10-21 16:54:00
12:54 PM,48.0,28.9,48,30.06,10.0,WNW,5.8,-,N/A,,Overcast,290,2013-10-21 17:54:00
1:54 PM,48.9,30.0,48,30.04,10.0,SW,10.4,-,N/A,,Overcast,230,2013-10-21 18:54:00
2:54 PM,50.0,32.0,50,30.02,10.0,WNW,3.5,-,N/A,,Mostly Cloudy,290,2013-10-21 19:54:00
3:54 PM,54.0,30.9,41,30.00,10.0,Variable,5.8,-,N/A,,Mostly Cloudy,0,2013-10-21 20:54:00
4:54 PM,54.0,32.0,43,29.99,10.0,SSW,5.8,-,N/A,,Mostly Cloudy,210,2013-10-21 21:54:00
5:54 PM,53.1,33.1,47,29.98,10.0,SW,4.6,-,N/A,,Overcast,230,2013-10-21 22:54:00
6:54 PM,51.1,34.0,52,29.98,10.0,WSW,5.8,-,0.00,Rain,Light Rain,240,2013-10-21 23:54:00
7:54 PM,48.0,37.9,68,29.98,10.0,North,4.6,-,0.00,,Overcast,360,2013-10-22 00:54:00
8:54 PM,46.9,37.9,71,29.98,10.0,Calm,Calm,-,N/A,,Overcast,0,2013-10-22 01:54:00
9:54 PM,46.0,39.0,76,29.97,10.0,ESE,3.5,-,0.00,Rain,Light Rain,120,2013-10-22 02:54:00
10:54 PM,46.0,39.0,76,29.96,10.0,Calm,Calm,-,N/A,,Overcast,0,2013-10-22 03:54:00
11:54 PM,46.0,39.0,76,29.94,10.0,Calm,Calm,-,N/A,,Overcast,0,2013-10-22 04:54:00